HAWK410 ETHL-ETHL

Flight info

Callsign HAWK410
Flight time 1h 46m
Altitude 7000
Route HL13 OLASO DCT WLD DCT NEU/N0120A040 DCT RISIS DCT
Aircraft EC45/L-SDE3FGHIRTWY/S

Departure

Time 2026-04-13 18:48
Airport Laupheim Air Base (ETHL)

Arrival

Time 2026-04-13 20:34
Airport Laupheim Air Base (ETHL)
Time Latitude Longitude Altitude Speed Heading
2026-04-13 18:41 48.21724 9.91197 1771 ft 0 kts 291°
2026-04-13 18:46 48.21750 9.91191 1780 ft 9 kts 25°
2026-04-13 18:46 48.21817 9.91218 1780 ft 10 kts
2026-04-13 18:46 48.21893 9.91222 1780 ft 12 kts
2026-04-13 18:46 48.21980 9.91227 1781 ft 13 kts 357°
2026-04-13 18:47 48.22009 9.90977 1888 ft 50 kts 271°
2026-04-13 18:47 48.22037 9.90257 1947 ft 84 kts 272°
2026-04-13 18:47 48.22070 9.89271 1954 ft 111 kts 271°
2026-04-13 18:47 48.22109 9.88069 2143 ft 111 kts 272°
2026-04-13 18:48 48.22142 9.86993 2398 ft 103 kts 273°
2026-04-13 18:48 48.22177 9.85892 2590 ft 106 kts 273°
2026-04-13 18:48 48.22214 9.84800 2881 ft 103 kts 273°
2026-04-13 18:48 48.22247 9.83741 3180 ft 102 kts 270°
2026-04-13 18:49 48.22044 9.82717 3445 ft 105 kts 240°
2026-04-13 18:49 48.21508 9.81967 3681 ft 108 kts 210°
2026-04-13 18:49 48.20776 9.81746 3927 ft 110 kts 176°
2026-04-13 18:49 48.20077 9.82192 4173 ft 111 kts 142°
2026-04-13 18:50 48.19670 9.83166 4418 ft 112 kts 105°
2026-04-13 18:50 48.19742 9.84310 4667 ft 112 kts 69°
2026-04-13 18:50 48.20048 9.85378 4922 ft 112 kts 66°
2026-04-13 18:50 48.20365 9.86448 5167 ft 112 kts 65°
2026-04-13 18:51 48.20669 9.87521 5411 ft 113 kts 69°
2026-04-13 18:51 48.20932 9.88698 5514 ft 122 kts 72°
2026-04-13 18:51 48.21150 9.89920 5709 ft 121 kts 78°
2026-04-13 18:51 48.21276 9.91168 5885 ft 121 kts 82°
2026-04-13 18:52 48.21369 9.92430 6064 ft 122 kts 84°
2026-04-13 18:52 48.21430 9.93698 6239 ft 122 kts 86°
2026-04-13 18:52 48.21466 9.94970 6411 ft 122 kts 88°
2026-04-13 18:52 48.21482 9.96240 6584 ft 122 kts 89°
2026-04-13 18:53 48.21483 9.97532 6719 ft 126 kts 90°
2026-04-13 18:53 48.21475 9.98852 6858 ft 127 kts 91°
2026-04-13 18:53 48.21459 10.00191 6940 ft 130 kts 91°
2026-04-13 18:53 48.21437 10.01554 7013 ft 132 kts 91°
2026-04-13 18:54 48.21410 10.02967 7015 ft 136 kts 91°
2026-04-13 18:54 48.21382 10.04380 7011 ft 136 kts 92°
2026-04-13 18:54 48.21351 10.05801 7008 ft 136 kts 92°
2026-04-13 18:54 48.21316 10.07214 7007 ft 136 kts 92°
2026-04-13 18:55 48.21274 10.08653 6993 ft 142 kts 92°
2026-04-13 18:55 48.21231 10.10134 7013 ft 141 kts 92°
2026-04-13 18:55 48.21188 10.11604 7009 ft 141 kts 92°
2026-04-13 18:55 48.21144 10.13074 7009 ft 141 kts 92°
2026-04-13 18:56 48.21099 10.14533 7003 ft 143 kts 92°
2026-04-13 18:56 48.21053 10.16019 7008 ft 142 kts 92°
2026-04-13 18:56 48.21008 10.17491 7007 ft 142 kts 92°
2026-04-13 18:56 48.20962 10.18962 7008 ft 141 kts 92°
2026-04-13 18:57 48.20915 10.20437 7008 ft 142 kts 92°
2026-04-13 18:57 48.20869 10.21910 7008 ft 141 kts 92°
2026-04-13 18:57 48.20974 10.23359 7007 ft 141 kts 71°
2026-04-13 18:57 48.21418 10.24672 7005 ft 141 kts 59°
2026-04-13 18:58 48.21936 10.25917 7010 ft 141 kts 57°
2026-04-13 18:58 48.22461 10.27147 7003 ft 141 kts 57°
2026-04-13 18:58 48.22992 10.28392 7003 ft 141 kts 57°
2026-04-13 18:58 48.23520 10.29636 7008 ft 141 kts 57°
2026-04-13 18:59 48.24044 10.30875 7009 ft 141 kts 57°
2026-04-13 18:59 48.24567 10.32115 7007 ft 141 kts 57°
2026-04-13 18:59 48.25089 10.33357 7006 ft 141 kts 57°
2026-04-13 18:59 48.25610 10.34598 7009 ft 141 kts 57°
2026-04-13 19:00 48.25954 10.35420 7008 ft 141 kts 57°
2026-04-13 19:00 48.26653 10.37086 7008 ft 141 kts 57°
2026-04-13 19:00 48.27173 10.38328 7008 ft 141 kts 57°
2026-04-13 19:00 48.27695 10.39577 7005 ft 141 kts 57°
2026-04-13 19:01 48.28213 10.40816 7002 ft 141 kts 57°
2026-04-13 19:01 48.28732 10.42058 7004 ft 141 kts 57°
2026-04-13 19:01 48.29255 10.43310 7008 ft 141 kts 57°
2026-04-13 19:01 48.29775 10.44558 7006 ft 141 kts 57°
2026-04-13 19:02 48.30294 10.45803 7008 ft 141 kts 57°
2026-04-13 19:02 48.30815 10.47052 7008 ft 141 kts 57°
2026-04-13 19:02 48.31336 10.48302 7008 ft 141 kts 57°
2026-04-13 19:02 48.31853 10.49544 7000 ft 141 kts 57°
2026-04-13 19:03 48.32374 10.50795 7008 ft 141 kts 57°
2026-04-13 19:03 48.32895 10.52047 7007 ft 141 kts 57°
2026-04-13 19:03 48.33412 10.53292 7003 ft 141 kts 57°
2026-04-13 19:03 48.33933 10.54545 7002 ft 141 kts 57°
2026-04-13 19:04 48.34448 10.55784 7008 ft 141 kts 57°
2026-04-13 19:04 48.34966 10.57030 7006 ft 141 kts 57°
2026-04-13 19:04 48.35486 10.58284 7003 ft 141 kts 57°
2026-04-13 19:04 48.36007 10.59540 7007 ft 141 kts 57°
2026-04-13 19:05 48.36527 10.60793 7008 ft 141 kts 57°
2026-04-13 19:05 48.37044 10.62042 7008 ft 141 kts 58°
2026-04-13 19:05 48.37561 10.63289 7007 ft 141 kts 57°
2026-04-13 19:05 48.38080 10.64543 7004 ft 141 kts 58°
2026-04-13 19:06 48.38255 10.64965 7008 ft 141 kts 57°
2026-04-13 19:06 48.38754 10.66172 7003 ft 141 kts 58°
2026-04-13 19:06 48.39271 10.67420 7000 ft 141 kts 58°
2026-04-13 19:07 48.39787 10.68669 7008 ft 141 kts 58°
2026-04-13 19:07 48.40303 10.69919 7008 ft 141 kts 58°
2026-04-13 19:07 48.40825 10.71181 7008 ft 141 kts 58°
2026-04-13 19:07 48.41341 10.72433 7008 ft 141 kts 58°
2026-04-13 19:08 48.41859 10.73688 7008 ft 141 kts 58°
2026-04-13 19:08 48.42379 10.74947 7008 ft 141 kts 58°
2026-04-13 19:08 48.42896 10.76201 7008 ft 141 kts 58°
2026-04-13 19:08 48.43412 10.77454 7004 ft 141 kts 58°
2026-04-13 19:09 48.43931 10.78714 7011 ft 141 kts 58°
2026-04-13 19:09 48.44447 10.79967 7011 ft 141 kts 58°
2026-04-13 19:09 48.44965 10.81225 7008 ft 141 kts 58°
2026-04-13 19:09 48.45484 10.82486 7004 ft 141 kts 58°
2026-04-13 19:10 48.46000 10.83741 7003 ft 141 kts 58°
2026-04-13 19:10 48.46518 10.85001 7002 ft 141 kts 58°
2026-04-13 19:10 48.47035 10.86260 7008 ft 141 kts 58°
2026-04-13 19:10 48.47550 10.87514 7008 ft 141 kts 58°
2026-04-13 19:11 48.48067 10.88774 7008 ft 141 kts 58°
2026-04-13 19:11 48.48584 10.90035 7008 ft 141 kts 58°
2026-04-13 19:11 48.49095 10.91281 7008 ft 141 kts 58°
2026-04-13 19:11 48.49610 10.92538 7008 ft 141 kts 58°
2026-04-13 19:12 48.50127 10.93801 7001 ft 141 kts 58°
2026-04-13 19:12 48.50643 10.95060 7004 ft 141 kts 58°
2026-04-13 19:12 48.51158 10.96318 7008 ft 141 kts 58°
2026-04-13 19:12 48.51675 10.97583 7011 ft 141 kts 58°
2026-04-13 19:13 48.52190 10.98843 7003 ft 141 kts 58°
2026-04-13 19:13 48.52706 11.00105 7009 ft 141 kts 58°
2026-04-13 19:13 48.53221 11.01365 7008 ft 141 kts 58°
2026-04-13 19:13 48.53736 11.02626 7008 ft 141 kts 58°
2026-04-13 19:14 48.54250 11.03883 7007 ft 142 kts 58°
2026-04-13 19:14 48.54771 11.05149 6987 ft 141 kts 57°
2026-04-13 19:14 48.55294 11.06390 6691 ft 141 kts 56°
2026-04-13 19:14 48.55831 11.07635 6302 ft 144 kts 56°
2026-04-13 19:15 48.56386 11.08920 5930 ft 147 kts 56°
2026-04-13 19:15 48.56944 11.10216 5564 ft 147 kts 56°
2026-04-13 19:15 48.57489 11.11514 5200 ft 145 kts 57°
2026-04-13 19:15 48.58026 11.12797 4822 ft 143 kts 57°
2026-04-13 19:16 48.58554 11.14060 4450 ft 142 kts 57°
2026-04-13 19:16 48.59078 11.15324 4186 ft 143 kts 58°
2026-04-13 19:16 48.59598 11.16608 4082 ft 142 kts 58°
2026-04-13 19:16 48.60106 11.17878 4040 ft 140 kts 59°
2026-04-13 19:17 48.60603 11.19126 4047 ft 133 kts 58°
2026-04-13 19:17 48.61071 11.20297 4043 ft 133 kts 59°
2026-04-13 19:17 48.61539 11.21491 4089 ft 132 kts 59°
2026-04-13 19:17 48.62013 11.22698 4100 ft 134 kts 59°
2026-04-13 19:18 48.62489 11.23907 4113 ft 133 kts 59°
2026-04-13 19:18 48.62802 11.24701 4113 ft 133 kts 59°
2026-04-13 19:18 48.63275 11.25896 4128 ft 130 kts 58°
2026-04-13 19:18 48.63688 11.26920 4166 ft 109 kts 58°
2026-04-13 19:19 48.64085 11.27907 4082 ft 115 kts 59°
2026-04-13 19:19 48.64501 11.28959 4104 ft 115 kts 58°
2026-04-13 19:19 48.64911 11.29993 4109 ft 115 kts 58°
2026-04-13 19:19 48.65324 11.31035 4095 ft 114 kts 58°
2026-04-13 19:20 48.65734 11.32050 3951 ft 113 kts 58°
2026-04-13 19:20 48.66144 11.33068 3870 ft 114 kts 58°
2026-04-13 19:20 48.66554 11.34096 3836 ft 114 kts 58°
2026-04-13 19:20 48.66962 11.35122 3830 ft 114 kts 58°
2026-04-13 19:21 48.67373 11.36157 3825 ft 114 kts 58°
2026-04-13 19:21 48.67773 11.37161 3848 ft 104 kts 58°
2026-04-13 19:21 48.68121 11.38022 3813 ft 95 kts 59°
2026-04-13 19:21 48.68465 11.38887 3827 ft 93 kts 58°
2026-04-13 19:22 48.68799 11.39711 3817 ft 92 kts 55°
2026-04-13 19:22 48.69268 11.40365 3817 ft 92 kts 26°
2026-04-13 19:22 48.69880 11.40554 3699 ft 90 kts 354°
2026-04-13 19:22 48.70462 11.40261 3527 ft 88 kts 327°
2026-04-13 19:23 48.70904 11.39628 3420 ft 89 kts 304°
2026-04-13 19:23 48.71124 11.38764 3344 ft 89 kts 276°
2026-04-13 19:23 48.71138 11.37831 3236 ft 88 kts 269°
2026-04-13 19:23 48.71130 11.36907 3114 ft 88 kts 269°
2026-04-13 19:24 48.71125 11.35984 2995 ft 88 kts 269°
2026-04-13 19:24 48.71122 11.35056 2875 ft 88 kts 270°
2026-04-13 19:24 48.71121 11.34134 2760 ft 88 kts 270°
2026-04-13 19:24 48.71121 11.33207 2635 ft 88 kts 270°
2026-04-13 19:25 48.71120 11.32285 2517 ft 88 kts 270°
2026-04-13 19:25 48.71119 11.31366 2397 ft 87 kts 270°
2026-04-13 19:25 48.71119 11.30446 2278 ft 87 kts 270°
2026-04-13 19:25 48.71119 11.29528 2160 ft 87 kts 270°
2026-04-13 19:26 48.71118 11.28611 2042 ft 87 kts 270°
2026-04-13 19:26 48.71118 11.27694 1922 ft 87 kts 270°
2026-04-13 19:26 48.71117 11.26782 1804 ft 87 kts 270°
2026-04-13 19:26 48.71117 11.25866 1687 ft 87 kts 270°
2026-04-13 19:27 48.71116 11.24954 1569 ft 87 kts 270°
2026-04-13 19:27 48.71116 11.24043 1452 ft 87 kts 270°
2026-04-13 19:27 48.71115 11.23128 1335 ft 87 kts 270°
2026-04-13 19:27 48.71116 11.22206 1297 ft 88 kts 271°
2026-04-13 19:28 48.71130 11.21243 1614 ft 95 kts 272°
2026-04-13 19:28 48.71144 11.20250 1950 ft 100 kts 270°
2026-04-13 19:28 48.71150 11.19172 2232 ft 101 kts 270°
2026-04-13 19:28 48.71156 11.18114 2569 ft 101 kts 270°
2026-04-13 19:29 48.71161 11.17042 2874 ft 103 kts 270°
2026-04-13 19:29 48.71166 11.15950 3169 ft 104 kts 270°
2026-04-13 19:29 48.71162 11.14852 3472 ft 104 kts 269°
2026-04-13 19:29 48.71154 11.13754 3774 ft 104 kts 269°
2026-04-13 19:30 48.71212 11.12664 4068 ft 105 kts 288°
2026-04-13 19:30 48.71696 11.11864 4356 ft 106 kts 332°
2026-04-13 19:30 48.72423 11.11799 4617 ft 110 kts 15°
2026-04-13 19:30 48.73008 11.12521 4892 ft 111 kts 57°
2026-04-13 19:31 48.73413 11.13567 5005 ft 125 kts 56°
2026-04-13 19:31 48.73914 11.14671 5157 ft 125 kts 54°
2026-04-13 19:31 48.74433 11.15781 5150 ft 132 kts 53°
2026-04-13 19:31 48.74969 11.16910 5140 ft 131 kts 53°
2026-04-13 19:32 48.75506 11.18035 5127 ft 132 kts 53°
2026-04-13 19:32 48.76044 11.19162 5123 ft 132 kts 53°
2026-04-13 19:32 48.76580 11.20286 5123 ft 132 kts 53°
2026-04-13 19:32 48.77087 11.21446 5117 ft 132 kts 63°
2026-04-13 19:33 48.77250 11.22808 5119 ft 132 kts 90°
2026-04-13 19:33 48.77210 11.24198 5118 ft 132 kts 94°
2026-04-13 19:33 48.77146 11.25591 5119 ft 132 kts 94°
2026-04-13 19:34 48.77011 11.28374 5118 ft 132 kts 94°
2026-04-13 19:34 48.76944 11.29766 5118 ft 132 kts 94°
2026-04-13 19:34 48.76876 11.31160 5117 ft 132 kts 94°
2026-04-13 19:34 48.76809 11.32548 5118 ft 132 kts 94°
2026-04-13 19:35 48.76741 11.33941 5118 ft 132 kts 94°
2026-04-13 19:35 48.76673 11.35329 5118 ft 132 kts 94°
2026-04-13 19:35 48.76605 11.36724 5118 ft 132 kts 94°
2026-04-13 19:35 48.76538 11.38118 5118 ft 132 kts 94°
2026-04-13 19:36 48.76470 11.39509 5118 ft 132 kts 94°
2026-04-13 19:36 48.76402 11.40899 5118 ft 132 kts 94°
2026-04-13 19:36 48.76334 11.42287 5118 ft 132 kts 94°
2026-04-13 19:36 48.76269 11.43612 5118 ft 132 kts 94°
2026-04-13 19:37 48.76202 11.45003 5085 ft 132 kts 94°
2026-04-13 19:37 48.76149 11.46358 4757 ft 127 kts 93°
2026-04-13 19:37 48.76036 11.47679 4419 ft 124 kts 105°
2026-04-13 19:37 48.75590 11.48776 4234 ft 126 kts 139°
2026-04-13 19:38 48.74805 11.49308 4187 ft 120 kts 174°
2026-04-13 19:38 48.74128 11.49310 4165 ft 101 kts 185°
2026-04-13 19:38 48.73398 11.49239 4113 ft 108 kts 185°
2026-04-13 19:38 48.72651 11.49158 4120 ft 107 kts 185°
2026-04-13 19:39 48.71919 11.49013 4116 ft 107 kts 199°
2026-04-13 19:39 48.71325 11.48376 4118 ft 106 kts 232°
2026-04-13 19:39 48.71080 11.47347 4188 ft 106 kts 265°
2026-04-13 19:39 48.71089 11.46223 4366 ft 107 kts 272°
2026-04-13 19:40 48.71110 11.45122 4229 ft 103 kts 270°
2026-04-13 19:40 48.71117 11.44037 4044 ft 103 kts 270°
2026-04-13 19:40 48.71121 11.42948 3905 ft 104 kts 270°
2026-04-13 19:40 48.71123 11.41854 3765 ft 103 kts 270°
2026-04-13 19:41 48.71124 11.40765 3623 ft 103 kts 270°
2026-04-13 19:41 48.71123 11.39679 3482 ft 103 kts 270°
2026-04-13 19:41 48.71123 11.38592 3341 ft 103 kts 270°
2026-04-13 19:42 48.71119 11.36652 3072 ft 87 kts 270°
2026-04-13 19:42 48.71121 11.35731 2972 ft 84 kts 270°
2026-04-13 19:42 48.71120 11.34886 2844 ft 80 kts 270°
2026-04-13 19:42 48.71121 11.34031 2741 ft 81 kts 270°
2026-04-13 19:43 48.71121 11.33188 2630 ft 81 kts 270°
2026-04-13 19:43 48.71123 11.32273 2514 ft 94 kts 270°
2026-04-13 19:43 48.71121 11.31293 2392 ft 91 kts 269°
2026-04-13 19:43 48.71119 11.30332 2266 ft 92 kts 270°
2026-04-13 19:44 48.71118 11.29372 2141 ft 91 kts 270°
2026-04-13 19:44 48.71118 11.28408 2014 ft 91 kts 270°
2026-04-13 19:44 48.71117 11.27450 1892 ft 91 kts 270°
2026-04-13 19:44 48.71117 11.26496 1769 ft 91 kts 270°
2026-04-13 19:45 48.71116 11.25537 1645 ft 91 kts 270°
2026-04-13 19:45 48.71116 11.24578 1520 ft 91 kts 270°
2026-04-13 19:45 48.71116 11.23622 1398 ft 91 kts 270°
2026-04-13 19:45 48.71115 11.22663 1296 ft 91 kts 270°
2026-04-13 19:46 48.71118 11.21691 1377 ft 94 kts 270°
2026-04-13 19:46 48.71114 11.20691 1563 ft 93 kts 270°
2026-04-13 19:46 48.71115 11.19697 1750 ft 93 kts 270°
2026-04-13 19:46 48.71123 11.18730 1946 ft 93 kts 271°
2026-04-13 19:47 48.71135 11.17817 2082 ft 106 kts 271°
2026-04-13 19:47 48.71151 11.16815 2376 ft 103 kts 271°
2026-04-13 19:47 48.71171 11.15797 2603 ft 103 kts 271°
2026-04-13 19:47 48.71180 11.15208 2747 ft 104 kts 271°
2026-04-13 19:48 48.71197 11.14078 3029 ft 105 kts 271°
2026-04-13 19:48 48.71212 11.13132 3271 ft 105 kts 271°
2026-04-13 19:48 48.71144 11.12041 3541 ft 106 kts 251°
2026-04-13 19:48 48.70790 11.11069 3825 ft 105 kts 241°
2026-04-13 19:49 48.70476 11.10064 4054 ft 110 kts 246°
2026-04-13 19:49 48.70154 11.08976 4146 ft 117 kts 245°
2026-04-13 19:49 48.69805 11.07840 4126 ft 123 kts 245°
2026-04-13 19:49 48.69429 11.06621 4135 ft 127 kts 245°
2026-04-13 19:50 48.69051 11.05425 4118 ft 126 kts 245°
2026-04-13 19:50 48.68673 11.04225 4118 ft 126 kts 245°
2026-04-13 19:50 48.68294 11.03028 4118 ft 126 kts 245°
2026-04-13 19:50 48.67914 11.01826 4118 ft 127 kts 245°
2026-04-13 19:51 48.67533 11.00623 4120 ft 127 kts 245°
2026-04-13 19:51 48.67152 10.99421 4117 ft 127 kts 245°
2026-04-13 19:51 48.66771 10.98220 4117 ft 126 kts 245°
2026-04-13 19:51 48.66391 10.97020 4119 ft 127 kts 245°
2026-04-13 19:52 48.66010 10.95820 4119 ft 127 kts 245°
2026-04-13 19:52 48.65628 10.94619 4118 ft 127 kts 244°
2026-04-13 19:52 48.65246 10.93416 4116 ft 127 kts 245°
2026-04-13 19:52 48.64864 10.92216 4117 ft 127 kts 244°
2026-04-13 19:53 48.64482 10.91017 4119 ft 127 kts 245°
2026-04-13 19:53 48.64099 10.89815 4118 ft 127 kts 245°
2026-04-13 19:53 48.63717 10.88613 4119 ft 127 kts 245°
2026-04-13 19:53 48.63334 10.87414 4119 ft 127 kts 245°
2026-04-13 19:54 48.62951 10.86211 4117 ft 127 kts 244°
2026-04-13 19:54 48.62697 10.85415 4117 ft 127 kts 244°
2026-04-13 19:54 48.62190 10.83825 4119 ft 127 kts 244°
2026-04-13 19:54 48.61931 10.83014 4118 ft 127 kts 244°
2026-04-13 19:55 48.61424 10.81426 4117 ft 127 kts 244°
2026-04-13 19:55 48.61039 10.80223 4117 ft 127 kts 244°
2026-04-13 19:55 48.60780 10.79414 4117 ft 127 kts 244°
2026-04-13 19:55 48.60401 10.78228 4118 ft 127 kts 244°
2026-04-13 19:56 48.60018 10.77032 4117 ft 127 kts 244°
2026-04-13 19:56 48.59633 10.75829 4119 ft 127 kts 244°
2026-04-13 19:56 48.59249 10.74630 4118 ft 127 kts 244°
2026-04-13 19:56 48.58859 10.73416 4119 ft 127 kts 244°
2026-04-13 19:57 48.58476 10.72222 4117 ft 127 kts 244°
2026-04-13 19:57 48.58092 10.71024 4119 ft 127 kts 244°
2026-04-13 19:57 48.57707 10.69824 4118 ft 127 kts 244°
2026-04-13 19:57 48.57322 10.68627 4117 ft 127 kts 244°
2026-04-13 19:58 48.56937 10.67426 4119 ft 127 kts 244°
2026-04-13 19:58 48.56557 10.66245 4117 ft 127 kts 244°
2026-04-13 19:58 48.56166 10.65028 4119 ft 127 kts 244°
2026-04-13 19:58 48.55786 10.63847 4118 ft 127 kts 244°
2026-04-13 19:59 48.55401 10.62651 4119 ft 127 kts 244°
2026-04-13 19:59 48.55016 10.61455 4118 ft 127 kts 244°
2026-04-13 19:59 48.54631 10.60262 4118 ft 127 kts 244°
2026-04-13 19:59 48.54245 10.59064 4117 ft 127 kts 244°
2026-04-13 20:00 48.53860 10.57870 4118 ft 127 kts 244°
2026-04-13 20:00 48.53473 10.56669 4118 ft 127 kts 244°
2026-04-13 20:00 48.53088 10.55476 4119 ft 127 kts 244°
2026-04-13 20:00 48.52700 10.54277 4118 ft 127 kts 244°
2026-04-13 20:01 48.52314 10.53080 4117 ft 127 kts 244°
2026-04-13 20:01 48.51928 10.51886 4120 ft 127 kts 244°
2026-04-13 20:01 48.51540 10.50688 4117 ft 127 kts 244°
2026-04-13 20:01 48.51159 10.49511 4118 ft 127 kts 244°
2026-04-13 20:02 48.50766 10.48297 4118 ft 127 kts 244°
2026-04-13 20:02 48.50385 10.47119 4117 ft 127 kts 244°
2026-04-13 20:02 48.49997 10.45922 4117 ft 127 kts 244°
2026-04-13 20:02 48.49609 10.44724 4119 ft 127 kts 244°
2026-04-13 20:03 48.49220 10.43527 4117 ft 127 kts 244°
2026-04-13 20:03 48.48833 10.42334 4119 ft 127 kts 244°
2026-04-13 20:03 48.48445 10.41138 4119 ft 127 kts 244°
2026-04-13 20:03 48.48057 10.39944 4119 ft 127 kts 244°
2026-04-13 20:04 48.47670 10.38753 4118 ft 127 kts 244°
2026-04-13 20:04 48.47282 10.37560 4117 ft 127 kts 244°
2026-04-13 20:04 48.46894 10.36366 4118 ft 127 kts 244°
2026-04-13 20:04 48.46504 10.35167 4117 ft 127 kts 244°
2026-04-13 20:05 48.46116 10.33974 4118 ft 127 kts 244°
2026-04-13 20:05 48.45727 10.32780 4119 ft 127 kts 244°
2026-04-13 20:05 48.45339 10.31589 4118 ft 127 kts 244°
2026-04-13 20:05 48.44949 10.30394 4118 ft 127 kts 244°
2026-04-13 20:06 48.44560 10.29201 4119 ft 127 kts 244°
2026-04-13 20:06 48.44175 10.28021 4118 ft 127 kts 244°
2026-04-13 20:06 48.43786 10.26830 4118 ft 127 kts 244°
2026-04-13 20:06 48.43397 10.25640 4118 ft 127 kts 244°
2026-04-13 20:07 48.43007 10.24448 4118 ft 127 kts 244°
2026-04-13 20:07 48.42618 10.23257 4117 ft 127 kts 244°
2026-04-13 20:07 48.42228 10.22063 4118 ft 127 kts 244°
2026-04-13 20:07 48.41838 10.20871 4119 ft 127 kts 244°
2026-04-13 20:08 48.41448 10.19680 4119 ft 127 kts 244°
2026-04-13 20:08 48.41058 10.18490 4117 ft 127 kts 244°
2026-04-13 20:08 48.40668 10.17301 4116 ft 127 kts 244°
2026-04-13 20:08 48.40277 10.16109 4118 ft 127 kts 244°
2026-04-13 20:09 48.39887 10.14919 4119 ft 127 kts 244°
2026-04-13 20:09 48.39496 10.13728 4118 ft 127 kts 244°
2026-04-13 20:09 48.39104 10.12533 4118 ft 127 kts 244°
2026-04-13 20:09 48.38717 10.11353 4118 ft 127 kts 244°
2026-04-13 20:10 48.38325 10.10162 4119 ft 127 kts 244°
2026-04-13 20:10 48.37929 10.08957 4117 ft 127 kts 244°
2026-04-13 20:10 48.37537 10.07766 4118 ft 127 kts 244°
2026-04-13 20:10 48.37146 10.06579 4119 ft 127 kts 244°
2026-04-13 20:11 48.36759 10.05403 4118 ft 127 kts 244°
2026-04-13 20:11 48.36363 10.04200 4117 ft 127 kts 244°
2026-04-13 20:11 48.35972 10.03011 4117 ft 127 kts 244°
2026-04-13 20:11 48.35579 10.01819 4118 ft 127 kts 244°
2026-04-13 20:12 48.35187 10.00631 4117 ft 127 kts 244°
2026-04-13 20:12 48.34793 9.99440 4116 ft 127 kts 244°
2026-04-13 20:12 48.34400 9.98249 4116 ft 127 kts 244°
2026-04-13 20:12 48.34006 9.97059 4117 ft 127 kts 244°
2026-04-13 20:13 48.33614 9.95874 4117 ft 127 kts 244°
2026-04-13 20:13 48.33221 9.94681 4118 ft 127 kts 245°
2026-04-13 20:13 48.32868 9.93481 4120 ft 127 kts 246°
2026-04-13 20:13 48.32521 9.92370 4136 ft 111 kts 243°
2026-04-13 20:14 48.32191 9.91292 4122 ft 116 kts 250°
2026-04-13 20:14 48.32098 9.90112 4120 ft 114 kts 276°
2026-04-13 20:14 48.32204 9.88927 4119 ft 115 kts 277°
2026-04-13 20:14 48.32305 9.87737 4119 ft 115 kts 277°
2026-04-13 20:15 48.32414 9.86550 4119 ft 115 kts 278°
2026-04-13 20:15 48.32675 9.85430 4116 ft 116 kts 308°
2026-04-13 20:15 48.33395 9.84994 4118 ft 117 kts
2026-04-13 20:15 48.34031 9.85695 4117 ft 119 kts 63°
2026-04-13 20:16 48.34026 9.86906 4124 ft 118 kts 109°
2026-04-13 20:16 48.33643 9.87923 4121 ft 118 kts 123°
2026-04-13 20:16 48.33151 9.88907 4117 ft 118 kts 130°
2026-04-13 20:16 48.32614 9.89844 4120 ft 118 kts 132°
2026-04-13 20:17 48.32089 9.90795 4115 ft 119 kts 122°
2026-04-13 20:17 48.32068 9.91989 4117 ft 119 kts 63°
2026-04-13 20:17 48.32725 9.92648 4119 ft 117 kts
2026-04-13 20:17 48.33447 9.92203 4119 ft 115 kts 312°
2026-04-13 20:18 48.33714 9.91086 4121 ft 114 kts 278°
2026-04-13 20:18 48.33821 9.89901 4118 ft 115 kts 278°
2026-04-13 20:18 48.33921 9.88713 4117 ft 115 kts 277°
2026-04-13 20:18 48.34019 9.87522 4115 ft 115 kts 277°
2026-04-13 20:19 48.34100 9.86328 4118 ft 115 kts 270°
2026-04-13 20:19 48.33819 9.85236 4118 ft 116 kts 224°
2026-04-13 20:19 48.33067 9.84990 4119 ft 118 kts 166°
2026-04-13 20:19 48.32520 9.85851 4127 ft 119 kts 111°
2026-04-13 20:20 48.32341 9.87058 4119 ft 119 kts 98°
2026-04-13 20:20 48.32191 9.88276 4119 ft 119 kts 99°
2026-04-13 20:20 48.32113 9.89508 4119 ft 119 kts 91°
2026-04-13 20:20 48.32100 9.90009 4118 ft 119 kts 93°
2026-04-13 20:21 48.32050 9.90794 4119 ft 119 kts 97°
2026-04-13 20:21 48.31915 9.92014 4117 ft 119 kts 97°
2026-04-13 20:21 48.31808 9.93247 4118 ft 119 kts 98°
2026-04-13 20:21 48.31696 9.94479 4119 ft 119 kts 98°
2026-04-13 20:22 48.31581 9.95688 4117 ft 119 kts 98°
2026-04-13 20:22 48.31462 9.96915 4118 ft 119 kts 98°
2026-04-13 20:22 48.31342 9.98143 4119 ft 119 kts 98°
2026-04-13 20:22 48.31222 9.99373 4117 ft 119 kts 98°
2026-04-13 20:23 48.31103 10.00601 4119 ft 119 kts 98°
2026-04-13 20:23 48.30983 10.01831 4118 ft 119 kts 98°
2026-04-13 20:23 48.30864 10.03061 4117 ft 119 kts 98°
2026-04-13 20:23 48.30746 10.04290 4118 ft 119 kts 98°
2026-04-13 20:24 48.30633 10.05518 4116 ft 119 kts 98°
2026-04-13 20:24 48.30521 10.06750 4119 ft 119 kts 98°
2026-04-13 20:24 48.30408 10.07980 4119 ft 119 kts 98°
2026-04-13 20:24 48.30289 10.09191 4147 ft 110 kts 98°
2026-04-13 20:25 48.30183 10.10285 4118 ft 107 kts 99°
2026-04-13 20:25 48.30069 10.11399 4121 ft 108 kts 98°
2026-04-13 20:25 48.29917 10.12498 4116 ft 108 kts 114°
2026-04-13 20:25 48.29399 10.13270 4118 ft 107 kts 156°
2026-04-13 20:26 48.28674 10.13445 4119 ft 106 kts 185°
2026-04-13 20:26 48.27948 10.13317 4119 ft 106 kts 188°
2026-04-13 20:26 48.27214 10.13182 4118 ft 106 kts 188°
2026-04-13 20:26 48.26482 10.13049 4118 ft 106 kts 188°
2026-04-13 20:27 48.25752 10.12917 4118 ft 106 kts 188°
2026-04-13 20:27 48.25020 10.12784 4118 ft 106 kts 188°
2026-04-13 20:27 48.24289 10.12647 4118 ft 106 kts 188°
2026-04-13 20:27 48.23569 10.12523 4147 ft 97 kts 187°
2026-04-13 20:28 48.22929 10.12436 3971 ft 92 kts 186°
2026-04-13 20:28 48.22299 10.12365 3712 ft 92 kts 186°
2026-04-13 20:28 48.21653 10.12288 3598 ft 94 kts 187°
2026-04-13 20:28 48.21139 10.11774 3552 ft 93 kts 245°
2026-04-13 20:29 48.21148 10.10829 3538 ft 93 kts 278°
2026-04-13 20:29 48.21223 10.09862 3528 ft 93 kts 275°
2026-04-13 20:29 48.21284 10.08898 3523 ft 93 kts 275°
2026-04-13 20:29 48.21340 10.07936 3521 ft 93 kts 276°
2026-04-13 20:30 48.21371 10.06972 3520 ft 93 kts 271°
2026-04-13 20:30 48.21413 10.06005 3519 ft 93 kts 274°
2026-04-13 20:30 48.21462 10.05045 3518 ft 93 kts 274°
2026-04-13 20:30 48.21509 10.04079 3510 ft 98 kts 274°
2026-04-13 20:31 48.21557 10.03065 3477 ft 104 kts 274°
2026-04-13 20:31 48.21599 10.02039 3456 ft 91 kts 273°
2026-04-13 20:31 48.21631 10.01101 3318 ft 91 kts 273°
2026-04-13 20:31 48.21666 10.00137 3193 ft 91 kts 273°
2026-04-13 20:32 48.21699 9.99186 3063 ft 91 kts 273°
2026-04-13 20:32 48.21732 9.98233 2933 ft 91 kts 273°
2026-04-13 20:32 48.21765 9.97283 2801 ft 91 kts 273°
2026-04-13 20:32 48.21797 9.96349 2673 ft 91 kts 272°
2026-04-13 20:33 48.21828 9.95403 2502 ft 90 kts 272°
2026-04-13 20:33 48.21860 9.94450 2327 ft 90 kts 273°
2026-04-13 20:33 48.21905 9.93504 2126 ft 92 kts 275°
2026-04-13 20:33 48.21960 9.92557 1884 ft 91 kts 274°
2026-04-13 20:34 48.21990 9.91674 1795 ft 72 kts 277°
2026-04-13 20:34 48.21993 9.91229 1789 ft 10 kts 189°
2026-04-13 20:34 48.21873 9.91222 1785 ft 20 kts 185°
2026-04-13 20:34 48.21766 9.91199 1777 ft 12 kts 186°
2026-04-13 20:35 48.21720 9.91205 1775 ft 1 kts 294°
2026-04-13 20:35 48.21723 9.91201 1772 ft 0 kts 292°